Tracking 22130 objects as of 21-Jan-2021
HD Live streaming from Space Station
objects crossing your sky now

STARLINK-1802

Track STARLINK-1802 now!
10-day predictions
STARLINK-1802 is classified as:


NORAD ID: 46702
Int'l Code: 2020-073AJ
Perigee: 394.3 km
Apogee: 401.7 km
Inclination: 53.1 °
Period: 92.4 minutes
Semi major axis: 6769 km
RCS: Unknown
Launch date: October 18, 2020
Source: United States (US)
Launch site: AIR FORCE EASTERN TEST RANGE (AFETR)
aabbcc
Your satellite tracking list
Your tracking list is empty




NASA's NSSDC Master Catalog

Two Line Element Set (TLE):
1 46702U 20073AJ  21021.58335648 -.01003280  00000-0 -14099-1 0  9999
2 46702  53.0539   3.2245 0005444 290.8556 238.1489 15.58887917  1773
Source of the keplerian elements: AFSPC